GW2742 Weather Reports


time (UTC)temp
F
wind
direction
speed
knots
gust
knots
rain 1hr
in
rain 24hr
in
rain mn
in
humidity
%
barometer
mb
20260504184542 57 342 7.8 13.9 0.00 0.00 0.00 43 1012.5
20260504184031 57 347 5.2 12.2 0.00 0.00 0.00 45 1012.5
20260504183526 56 347 5.2 12.2 0.00 0.00 0.00 47 1012.6
20260504183038 55 331 3.5 13.0 0.00 0.00 0.00 48 1012.6
20260504182526 55 347 7.8 15.6 0.00 0.00 0.00 47 1012.7
20260504182024 55 68 5.2 15.6 0.00 0.00 0.00 47 1012.7
20260504181538 55 42 7.0 15.6 0.00 0.00 0.00 47 1012.5
20260504181027 54 60 7.8 15.6 0.00 0.00 0.00 48 1012.7
20260504180524 55 25 7.0 13.0 0.00 0.00 0.00 45 1012.8
20260504180037 56 72 4.3 14.8 0.00 0.00 0.00 47 1012.7
20260504175526 56 32 7.8 14.8 0.00 0.00 0.00 46 1012.8
20260504175026 56 60 7.8 14.8 0.00 0.00 0.00 44 1012.6
20260504174536 57 4 5.2 12.2 0.00 0.00 0.00 46 1012.7
20260504174027 55 323 7.0 12.2 0.00 0.00 0.00 44 1012.7
20260504173530 56 56 2.6 12.2 0.00 0.00 0.00 46 1012.6
20260504173037 56 18 4.3 11.3 0.00 0.00 0.00 45 1012.7
20260504172524 56 307 4.3 9.6 0.00 0.00 0.00 46 1012.7
20260504172027 55 360 4.3 10.4 0.00 0.00 0.00 46 1012.8
20260504171537 55 55 5.2 11.3 0.00 0.00 0.00 47 1012.9
20260504171027 55 3 3.5 11.3 0.00 0.00 0.00 46 1012.8
20260504170526 55 49 5.2 11.3 0.00 0.00 0.00 47 1012.9
20260504151027 50 60 5.2 14.8 0.00 0.00 0.00 53 1013.0
20260504150525 50 20 5.2 14.8 0.00 0.00 0.00 53 1013.1
20260504141028 48 36 6.1 13.0 0.00 0.00 0.00 56 1012.6
20260504140526 48 359 7.0 17.4 0.00 0.00 0.00 56 1012.6
20260504130524 48 25 2.6 7.8 0.00 0.00 0.00 52 1012.2
20260504110526 50 11 2.6 7.8 0.00 0.00 0.00 51 1009.1
20260504100527 43 24 0.0 2.6 0.00 0.00 0.00 66 1008.1
20260504081540 45 0 0.0 0.0 0.00 0.00 0.00 61 1008.0
20260504081027 46 0 0.0 0.0 0.00 0.00 0.00 61 1007.9
20260504080527 46 0 0.0 0.0 0.00 0.00 0.00 60 1008.0
20260504050527 53 193 0.0 1.7 0.00 0.00 0.00 44 1008.2
20260504045526 53 0 0.0 3.5 0.00 0.00 0.00 47 1008.3
20260504045030 53 193 0.9 3.5 0.00 0.00 0.00 43 1008.2
20260504044537 53 193 1.7 3.5 0.00 0.00 0.00 42 1008.1
20260504044025 53 257 0.9 1.7 0.00 0.00 0.00 43 1008.0
20260504043523 54 257 0.9 1.7 0.00 0.00 0.00 43 1008.0
20260504043058 54 257 0.0 1.7 0.00 0.00 0.00 41 1007.9
20260504042523 55 0 0.0 1.7 0.00 0.00 0.00 40 1008.0
20260504042023 55 257 0.0 1.7 0.00 0.00 0.00 39 1007.9
20260504041538 55 257 0.9 1.7 0.00 0.00 0.00 39 1008.0
20260504041022 55 257 0.9 1.7 0.00 0.00 0.00 39 1007.9
20260504040525 56 257 0.9 1.7 0.00 0.00 0.00 40 1008.0
20260504040042 56 0 0.9 1.7 0.00 0.00 0.00 38 1008.0
20260504035526 57 0 0.9 1.7 0.00 0.00 0.00 38 1008.0
20260504035023 57 0 0.0 1.7 0.00 0.00 0.00 36 1008.1
20260504034546 58 0 0.0 0.0 0.00 0.00 0.00 35 1008.0
20260504034026 58 0 0.0 0.9 0.00 0.00 0.00 35 1008.0
20260504033523 58 0 0.0 0.9 0.00 0.00 0.00 34 1007.9
20260504033043 59 0 0.0 0.9 0.00 0.00 0.00 36 1007.9
20260504032523 60 0 0.0 1.7 0.00 0.00 0.00 36 1007.9
20260504032023 61 0 0.0 2.6 0.00 0.00 0.00 35 1007.9
20260504031549 62 356 0.0 2.6 0.00 0.00 0.00 37 1007.7
20260504031025 62 324 0.9 3.5 0.00 0.00 0.00 30 1007.8
20260504030525 63 352 0.9 3.5 0.00 0.00 0.00 31 1007.8
20260504030055 63 319 1.7 3.5 0.00 0.00 0.00 29 1007.7
20260504025523 63 329 1.7 3.5 0.00 0.00 0.00 29 1007.7
20260504025026 63 327 1.7 3.5 0.00 0.00 0.00 30 1007.7
20260504024540 62 334 0.9 3.5 0.00 0.00 0.00 30 1007.7
20260504024026 62 335 0.9 2.6 0.00 0.00 0.00 33 1007.6
20260504023523 63 0 0.0 2.6 0.00 0.00 0.00 33 1007.7
20260504023038 63 0 0.0 2.6 0.00 0.00 0.00 34 1007.6
20260504022523 64 0 0.0 1.7 0.00 0.00 0.00 35 1007.6
20260504022024 65 0 0.0 1.7 0.00 0.00 0.00 34 1007.5
20260504021545 65 0 0.0 0.0 0.00 0.00 0.00 33 1007.6
20260504021025 66 0 0.0 1.7 0.00 0.00 0.00 32 1007.6
20260504020522 67 0 0.0 2.6 0.00 0.00 0.00 31 1007.6
20260504020039 67 0 0.9 2.6 0.00 0.00 0.00 32 1007.6
20260504015527 69 335 1.7 2.6 0.00 0.00 0.00 32 1007.5
20260504015023 70 238 0.9 1.7 0.00 0.00 0.00 29 1007.4
20260504014540 71 238 0.9 1.7 0.00 0.00 0.00 27 1007.4
20260504014023 72 238 0.0 1.7 0.00 0.00 0.00 25 1007.5
20260504013528 73 238 0.0 1.7 0.00 0.00 0.00 23 1007.5
20260504013044 74 238 0.0 1.7 0.00 0.00 0.00 23 1007.4
20260504012522 74 276 0.0 1.7 0.00 0.00 0.00 24 1007.5
20260504012022 74 0 0.0 3.5 0.00 0.00 0.00 23 1007.6
20260504011543 73 273 0.9 3.5 0.00 0.00 0.00 23 1007.7
20260504011030 73 265 0.0 3.5 0.00 0.00 0.00 26 1007.8
20260504010523 73 277 0.9 3.5 0.00 0.00 0.00 25 1007.7
20260504010053 74 259 0.9 3.5 0.00 0.00 0.00 24 1007.7
20260504005523 74 0 1.7 5.2 0.00 0.00 0.00 23 1007.8
20260504005023 73 250 1.7 5.2 0.00 0.00 0.00 25 1007.9
20260504004544 73 255 2.6 5.2 0.00 0.00 0.00 23 1007.9
20260504004026 73 247 1.7 5.2 0.00 0.00 0.00 23 1008.0
20260504003522 73 228 2.6 5.2 0.00 0.00 0.00 22 1008.0
20260504003038 74 234 1.7 3.5 0.00 0.00 0.00 23 1008.0
20260504002522 75 240 0.9 5.2 0.00 0.00 0.00 23 1008.1
20260504002023 75 250 1.7 5.2 0.00 0.00 0.00 23 1008.0
20260504001540 74 327 1.7 6.1 0.00 0.00 0.00 22 1008.2
20260504001022 74 297 1.7 7.0 0.00 0.00 0.00 25 1008.2
20260504000523 74 327 3.5 7.0 0.00 0.00 0.00 23 1008.5
20260504000046 75 278 1.7 7.8 0.00 0.00 0.00 23 1008.3
20260503235527 75 349 1.7 7.8 0.00 0.00 0.00 22 1008.5
20260503235027 75 347 1.7 7.8 0.00 0.00 0.00 24 1008.6
20260503234541 76 26 1.7 6.1 0.00 0.00 0.00 23 1008.6
20260503234026 75 209 2.6 6.1 0.00 0.00 0.00 22 1008.6
20260503233525 75 231 1.7 7.0 0.00 0.00 0.00 22 1008.8
20260503233039 75 284 0.9 7.8 0.00 0.00 0.00 22 1008.8
20260503232522 74 240 2.6 9.6 0.00 0.00 0.00 22 1008.8
20260503232025 75 352 3.5 9.6 0.00 0.00 0.00 23 1008.9
20260503231539 75 211 2.6 6.1 0.00 0.00 0.00 24 1009.0
20260503231023 74 264 1.7 7.8 0.00 0.00 0.00 26 1008.8
20260503230522 74 332 3.5 7.8 0.00 0.00 0.00 24 1008.9
20260503230103 74 328 1.7 8.7 0.00 0.00 0.00 24 1008.9
20260503225522 74 1 5.2 8.7 0.00 0.00 0.00 24 1009.1
20260503225023 74 280 1.7 10.4 0.00 0.00 0.00 24 1009.1
20260503224543 74 308 3.5 10.4 0.00 0.00 0.00 26 1009.1
20260503224022 74 352 5.2 10.4 0.00 0.00 0.00 25 1009.1
20260503223526 74 1 2.6 7.0 0.00 0.00 0.00 26 1009.1
20260503223049 74 360 0.9 5.2 0.00 0.00 0.00 27 1009.2
20260503222522 74 272 1.7 9.6 0.00 0.00 0.00 26 1009.3
20260503222022 74 350 3.5 9.6 0.00 0.00 0.00 27 1009.5
20260503221546 74 351 3.5 10.4 0.00 0.00 0.00 27 1009.4
20260503221023 73 333 1.7 10.4 0.00 0.00 0.00 27 1009.5
20260503220526 73 330 3.5 10.4 0.00 0.00 0.00 28 1009.7
20260503220039 73 317 7.0 12.2 0.00 0.00 0.00 26 1009.7
20260503215525 73 329 4.3 12.2 0.00 0.00 0.00 26 1009.8
20260503215025 74 338 4.3 9.6 0.00 0.00 0.00 28 1009.8
20260503214553 74 342 3.5 7.8 0.00 0.00 0.00 28 1010.0
20260503214026 73 278 3.5 9.6 0.00 0.00 0.00 28 1010.0
20260503213523 73 359 2.6 9.6 0.00 0.00 0.00 27 1010.1
20260503213040 73 337 3.5 8.7 0.00 0.00 0.00 27 1010.2
20260503212522 73 307 2.6 9.6 0.00 0.00 0.00 29 1010.3
20260503212023 73 324 5.2 9.6 0.00 0.00 0.00 29 1010.4
20260503211538 73 356 2.6 9.6 0.00 0.00 0.00 28 1010.6
20260503211022 73 211 4.3 9.6 0.00 0.00 0.00 28 1010.7
20260503210522 73 294 5.2 9.6 0.00 0.00 0.00 28 1010.7
20260503210038 72 242 3.5 11.3 0.00 0.00 0.00 29 1010.7
20260503205525 72 326 5.2 11.3 0.00 0.00 0.00 28 1010.9
20260503205026 72 339 5.2 12.2 0.00 0.00 0.00 29 1011.1
20260503204543 73 359 6.1 12.2 0.00 0.00 0.00 28 1011.3
20260503204026 73 350 2.6 7.0 0.00 0.00 0.00 31 1011.3
20260503203526 73 328 2.6 7.8 0.00 0.00 0.00 28 1011.5
20260503203039 73 0 2.6 8.7 0.00 0.00 0.00 26 1011.5
20260503202528 73 254 3.5 8.7 0.00 0.00 0.00 27 1011.6
20260503202026 73 344 1.7 6.1 0.00 0.00 0.00 29 1011.7
20260503201544 72 327 1.7 8.7 0.00 0.00 0.00 27 1011.8
20260503201023 72 342 1.7 8.7 0.00 0.00 0.00 27 1011.7
20260503200522 72 347 4.3 10.4 0.00 0.00 0.00 28 1011.9
20260503200038 72 314 3.5 10.4 0.00 0.00 0.00 28 1011.9
20260503195522 71 341 5.2 10.4 0.00 0.00 0.00 29 1011.9
20260503195023 71 341 2.6 10.4 0.00 0.00 0.00 28 1011.9
20260503194545 71 331 4.3 9.6 0.00 0.00 0.00 30 1011.9
20260503194022 71 354 3.5 8.7 0.00 0.00 0.00 31 1012.1
20260503193524 71 63 5.2 16.5 0.00 0.00 0.00 27 1012.2
20260503193044 70 13 3.5 16.5 0.00 0.00 0.00 29 1012.2
20260503192525 70 166 3.5 9.6 0.00 0.00 0.00 32 1012.4
20260503192029 70 232 2.6 8.7 0.00 0.00 0.00 32 1012.4
20260503191539 70 349 2.6 8.7 0.00 0.00 0.00 34 1012.6
20260503191026 69 30 4.3 8.7 0.00 0.00 0.00 31 1012.5
20260503190525 69 66 0.9 5.2 0.00 0.00 0.00 34 1012.8
20260503190043 69 325 1.7 5.2 0.00 0.00 0.00 36 1013.0
20260503185525 69 143 1.7 4.3 0.00 0.00 0.00 33 1012.9
20260503185029 68 154 1.7 5.2 0.00 0.00 0.00 40 1013.1